QPF
0.00 0.00 0.00 0.00 0.00 0.00 0.00 0.00 0.00 0.00 0.00 0.00 0.00 0.00 0.00 0.00 0.00 0.00 0.00 0.00 0.00 0.00 0.00 0.00 0.00 0.00 0.00 0.00 0.00 0.00 0.00 0.00 0.00 0.00 0.00 0.00 0.00 0.00 0.00 0.00 0.00 0.00 0.00 0.00 0.00 0.00 0.00 0.00 0.00 0.00 0.00 0.00 0.01 0.03 0.06 0.09 0.14 0.18 0.22 0.26 0.26 0.30 0.35 0.42 0.46 0.48 0.48 0.45 0.40
0.00 0.00 0.00 0.00 0.00 0.00 0.00 0.00 0.00 0.00 0.00 0.00 0.00 0.00 0.00 0.00 0.00 0.00 0.00 0.00 0.00 0.00 0.00 0.00 0.00 0.00 0.00 0.00 0.00 0.00 0.00 0.00 0.00 0.00 0.00 0.00 0.00 0.00 0.00 0.00 0.00 0.00 0.00 0.00 0.00 0.00 0.00 0.00 0.00 0.00 0.00 0.00 0.00 0.01 0.02 0.03 0.08 0.11 0.15 0.19 0.17 0.23 0.32 0.38 0.45 0.48 0.49 0.46 0.40
0.00 0.00 0.00 0.00 0.00 0.00 0.00 0.00 0.00 0.00 0.00 0.00 0.00 0.00 0.00 0.00 0.00 0.00 0.00 0.00 0.00 0.00 0.00 0.00 0.00 0.00 0.00 0.00 0.00 0.00 0.00 0.00 0.00 0.00 0.00 0.00 0.00 0.00 0.00 0.00 0.00 0.00 0.00 0.00 0.00 0.00 0.00 0.00 0.00 0.00 0.00 0.00 0.00 0.00 0.01 0.01 0.03 0.06 0.08 0.10 0.09 0.18 0.29 0.37 0.42 0.47 0.52 0.56 0.47
0.00 0.00 0.00 0.00 0.00 0.00 0.00 0.00 0.00 0.00 0.00 0.00 0.00 0.00 0.00 0.00 0.00 0.00 0.00 0.00 0.00 0.00 0.00 0.00 0.00 0.00 0.00 0.00 0.00 0.00 0.00 0.00 0.00 0.00 0.00 0.00 0.00 0.00 0.00 0.00 0.00 0.00 0.00 0.00 0.00 0.00 0.00 0.00 0.00 0.00 0.00 0.00 0.00 0.00 0.00 0.00 0.02 0.03 0.04 0.04 0.06 0.10 0.17 0.30 0.40 0.47 0.52 0.57 0.55
0.00 0.00 0.00 0.00 0.00 0.00 0.00 0.00 0.00 0.00 0.00 0.00 0.00 0.00 0.00 0.00 0.00 0.00 0.00 0.00 0.00 0.00 0.00 0.00 0.00 0.00 0.00 0.00 0.00 0.00 0.00 0.00 0.00 0.00 0.00 0.00 0.00 0.00 0.00 0.00 0.00 0.00 0.00 0.00 0.00 0.00 0.00 0.00 0.00 0.00 0.00 0.00 0.00 0.00 0.00 0.00 0.01 0.02 0.03 0.03 0.05 0.06 0.09 0.13 0.29 0.41 0.50 0.54 0.54
0.00 0.00 0.00 0.00 0.00 0.00 0.00 0.00 0.00 0.00 0.00 0.00 0.00 0.00 0.00 0.00 0.00 0.00 0.00 0.00 0.00 0.00 0.00 0.00 0.00 0.00 0.00 0.00 0.00 0.00 0.00 0.00 0.00 0.00 0.00 0.00 0.00 0.00 0.00 0.00 0.00 0.00 0.00 0.00 0.00 0.00 0.00 0.00 0.00 0.00 0.00 0.00 0.00 0.00 0.00 0.00 0.00 0.01 0.02 0.03 0.03 0.05 0.06 0.08 0.18 0.30 0.39 0.45 0.45
0.00 0.00 0.00 0.00 0.00 0.00 0.00 0.00 0.00 0.00 0.00 0.00 0.00 0.00 0.00 0.00 0.00 0.00 0.00 0.00 0.00 0.00 0.00 0.00 0.00 0.00 0.00 0.00 0.00 0.00 0.00 0.00 0.00 0.00 0.00 0.00 0.00 0.00 0.00 0.00 0.00 0.00 0.00 0.00 0.00 0.00 0.00 0.00 0.00 0.00 0.00 0.00 0.00 0.00 0.00 0.01 0.00 0.01 0.01 0.02 0.03 0.04 0.05 0.05 0.06 0.15 0.27 0.37 0.37
0.00 0.00 0.00 0.00 0.00 0.00 0.00 0.00 0.00 0.00 0.00 0.00 0.00 0.00 0.00 0.00 0.00 0.00 0.00 0.00 0.00 0.00 0.00 0.00 0.00 0.00 0.00 0.00 0.00 0.00 0.00 0.00 0.00 0.00 0.00 0.00 0.00 0.00 0.00 0.00 0.00 0.00 0.00 0.00 0.00 0.00 0.00 0.00 0.00 0.00 0.00 0.00 0.00 0.00 0.00 0.00 0.01 0.01 0.01 0.02 0.03 0.03 0.04 0.05 0.05 0.06 0.10 0.23 0.23
0.00 0.00 0.00 0.00 0.00 0.00 0.00 0.00 0.00 0.00 0.00 0.00 0.00 0.00 0.00 0.00 0.00 0.00 0.00 0.00 0.00 0.00 0.00 0.00 0.00 0.00 0.00 0.00 0.00 0.00 0.00 0.00 0.00 0.00 0.00 0.00 0.00 0.00 0.00 0.00 0.00 0.00 0.00 0.00 0.00 0.00 0.00 0.00 0.00 0.00 0.00 0.00 0.00 0.00 0.00 0.00 0.01 0.01 0.01 0.01 0.02 0.03 0.04 0.05 0.05 0.05 0.05 0.06 0.12
0.00 0.00 0.00 0.00 0.00 0.00 0.00 0.00 0.00 0.00 0.00 0.00 0.00 0.00 0.00 0.00 0.00 0.00 0.00 0.00 0.00 0.00 0.00 0.00 0.00 0.00 0.00 0.00 0.00 0.00 0.00 0.00 0.00 0.00 0.00 0.00 0.00 0.00 0.00 0.00 0.00 0.00 0.00 0.00 0.00 0.00 0.00 0.00 0.00 0.00 0.00 0.00 0.00 0.00 0.00 0.00 0.00 0.00 0.01 0.01 0.01 0.02 0.04 0.05 0.05 0.05 0.05 0.06 0.06
0.00 0.00 0.00 0.00 0.00 0.00 0.00 0.00 0.00 0.00 0.00 0.00 0.00 0.00 0.00 0.00 0.00 0.00 0.00 0.00 0.00 0.00 0.00 0.00 0.00 0.00 0.00 0.00 0.00 0.00 0.00 0.00 0.00 0.00 0.00 0.00 0.00 0.00 0.00 0.00 0.00 0.00 0.00 0.00 0.00 0.00 0.00 0.00 0.00 0.00 0.00 0.00 0.00 0.00 0.00 0.00 0.00 0.00 0.01 0.01 0.01 0.02 0.03 0.04 0.05 0.05 0.05 0.06 0.06
0.00 0.00 0.00 0.00 0.00 0.00 0.00 0.00 0.00 0.00 0.00 0.00 0.00 0.00 0.00 0.00 0.00 0.00 0.00 0.00 0.00 0.00 0.00 0.00 0.00 0.00 0.00 0.00 0.00 0.00 0.00 0.00 0.00 0.00 0.00 0.00 0.00 0.00 0.00 0.00 0.00 0.00 0.00 0.00 0.00 0.00 0.00 0.00 0.00 0.00 0.00 0.00 0.00 0.00 0.00 0.00 0.00 0.00 0.01 0.01 0.01 0.01 0.02 0.03 0.04 0.05 0.06 0.06 0.06
0.00 0.00 0.00 0.00 0.00 0.00 0.00 0.00 0.00 0.00 0.00 0.00 0.00 0.00 0.00 0.00 0.00 0.00 0.00 0.00 0.00 0.00 0.00 0.00 0.00 0.00 0.00 0.00 0.00 0.00 0.00 0.00 0.00 0.00 0.00 0.00 0.00 0.00 0.00 0.00 0.00 0.00 0.00 0.00 0.00 0.00 0.00 0.00 0.00 0.00 0.00 0.00 0.00 0.00 0.00 0.00 0.00 0.00 0.01 0.01 0.01 0.01 0.02 0.02 0.03 0.04 0.06 0.07 0.07
0.00 0.00 0.00 0.00 0.00 0.00 0.00 0.00 0.00 0.00 0.00 0.00 0.00 0.00 0.00 0.00 0.00 0.00 0.00 0.00 0.00 0.00 0.00 0.00 0.00 0.00 0.00 0.00 0.00 0.00 0.00 0.00 0.00 0.00 0.00 0.00 0.00 0.00 0.00 0.00 0.00 0.00 0.00 0.00 0.00 0.00 0.00 0.00 0.00 0.00 0.00 0.00 0.00 0.00 0.00 0.00 0.00 0.01 0.01 0.01 0.01 0.01 0.01 0.02 0.02 0.04 0.05 0.07 0.07
0.00 0.00 0.00 0.00 0.00 0.00 0.00 0.00 0.00 0.00 0.00 0.00 0.00 0.00 0.00 0.00 0.00 0.00 0.00 0.00 0.00 0.00 0.00 0.00 0.00 0.00 0.00 0.00 0.00 0.00 0.00 0.00 0.00 0.00 0.00 0.00 0.00 0.00 0.00 0.00 0.00 0.00 0.00 0.00 0.00 0.00 0.00 0.00 0.00 0.00 0.00 0.00 0.00 0.00 0.00 0.00 0.01 0.01 0.01 0.01 0.01 0.01 0.01 0.01 0.02 0.03 0.04 0.06 0.07
0.00 0.00 0.00 0.00 0.00 0.00 0.00 0.00 0.00 0.00 0.00 0.00 0.00 0.00 0.00 0.00 0.00 0.00 0.00 0.00 0.00 0.00 0.00 0.00 0.00 0.00 0.00 0.00 0.00 0.00 0.00 0.00 0.00 0.00 0.00 0.00 0.00 0.00 0.00 0.00 0.00 0.00 0.00 0.01 0.01 0.01 0.01 0.01 0.01 0.01 0.01 0.00 0.00 0.00 0.00 0.00 0.01 0.01 0.01 0.01 0.01 0.01 0.01 0.02 0.02 0.03 0.03 0.04 0.06
0.00 0.00 0.00 0.00 0.00 0.00 0.00 0.00 0.00 0.00 0.00 0.00 0.00 0.00 0.00 0.00 0.00 0.00 0.00 0.00 0.00 0.00 0.00 0.00 0.00 0.00 0.00 0.00 0.00 0.00 0.00 0.00 0.00 0.00 0.00 0.00 0.00 0.00 0.00 0.00 0.00 0.00 0.00 0.01 0.01 0.01 0.01 0.01 0.01 0.01 0.01 0.01 0.01 0.01 0.01 0.01 0.01 0.01 0.01 0.02 0.02 0.02 0.02 0.02 0.02 0.03 0.03 0.04 0.05
0.00 0.00 0.00 0.00 0.00 0.00 0.00 0.00 0.00 0.00 0.00 0.00 0.00 0.00 0.00 0.00 0.00 0.00 0.00 0.00 0.00 0.00 0.00 0.00 0.00 0.00 0.00 0.00 0.00 0.00 0.00 0.00 0.00 0.00 0.00 0.00 0.00 0.00 0.00 0.00 0.00 0.00 0.00 0.01 0.01 0.01 0.02 0.01 0.01 0.01 0.01 0.01 0.01 0.01 0.01 0.01 0.01 0.01 0.02 0.02 0.02 0.02 0.02 0.02 0.03 0.03 0.03 0.04 0.05
0.00 0.00 0.00 0.00 0.00 0.00 0.00 0.00 0.00 0.00 0.00 0.00 0.00 0.00 0.00 0.00 0.00 0.00 0.00 0.00 0.00 0.00 0.00 0.00 0.00 0.00 0.00 0.00 0.00 0.00 0.00 0.00 0.00 0.00 0.00 0.00 0.00 0.00 0.00 0.00 0.00 0.00 0.00 0.00 0.01 0.01 0.02 0.02 0.01 0.01 0.01 0.01 0.02 0.02 0.01 0.01 0.01 0.01 0.02 0.02 0.02 0.02 0.03 0.03 0.04 0.04 0.04 0.04 0.05
0.00 0.00 0.00 0.00 0.00 0.00 0.00 0.00 0.00 0.00 0.00 0.00 0.00 0.00 0.00 0.00 0.00 0.00 0.00 0.00 0.00 0.00 0.00 0.00 0.00 0.00 0.00 0.00 0.00 0.00 0.00 0.00 0.00 0.00 0.00 0.00 0.00 0.00 0.00 0.00 0.00 0.00 0.00 0.00 0.00 0.01 0.01 0.01 0.01 0.02 0.02 0.02 0.02 0.02 0.02 0.01 0.01 0.02 0.02 0.02 0.02 0.03 0.03 0.03 0.04 0.05 0.05 0.05 0.05
0.00 0.00 0.00 0.00 0.00 0.00 0.00 0.00 0.00 0.00 0.00 0.00 0.00 0.00 0.00 0.00 0.00 0.00 0.00 0.00 0.00 0.00 0.00 0.00 0.00 0.00 0.00 0.00 0.00 0.00 0.00 0.00 0.00 0.00 0.00 0.00 0.00 0.00 0.00 0.00 0.00 0.00 0.00 0.00 0.00 0.01 0.01 0.01 0.01 0.01 0.02 0.02 0.02 0.02 0.02 0.02 0.02 0.02 0.02 0.03 0.03 0.03 0.03 0.04 0.04 0.05 0.05 0.06 0.06
0.00 0.00 0.00 0.00 0.00 0.00 0.00 0.00 0.00 0.00 0.00 0.00 0.00 0.00 0.00 0.00 0.00 0.00 0.00 0.00 0.00 0.00 0.00 0.00 0.00 0.00 0.00 0.00 0.00 0.00 0.00 0.00 0.00 0.00 0.00 0.00 0.00 0.00 0.00 0.00 0.00 0.00 0.00 0.00 0.00 0.00 0.01 0.01 0.01 0.01 0.02 0.02 0.02 0.02 0.02 0.02 0.02 0.02 0.03 0.03 0.03 0.03 0.04 0.04 0.05 0.05 0.06 0.07 0.08
0.00 0.00 0.00 0.00 0.00 0.00 0.00 0.00 0.00 0.00 0.00 0.00 0.00 0.00 0.00 0.00 0.00 0.00 0.00 0.00 0.00 0.00 0.00 0.00 0.00 0.00 0.00 0.00 0.00 0.00 0.00 0.00 0.00 0.00 0.00 0.00 0.00 0.00 0.00 0.00 0.00 0.00 0.00 0.00 0.00 0.00 0.01 0.01 0.02 0.02 0.02 0.02 0.02 0.02 0.02 0.02 0.02 0.02 0.03 0.03 0.04 0.04 0.05 0.05 0.06 0.06 0.07 0.08 0.10
0.00 0.00 0.00 0.00 0.00 0.00 0.00 0.00 0.00 0.00 0.00 0.00 0.00 0.00 0.00 0.00 0.00 0.00 0.00 0.00 0.00 0.00 0.00 0.00 0.00 0.00 0.00 0.00 0.00 0.00 0.00 0.00 0.00 0.00 0.00 0.00 0.00 0.00 0.00 0.00 0.00 0.00 0.00 0.00 0.00 0.00 0.01 0.02 0.02 0.03 0.03 0.03 0.02 0.02 0.02 0.02 0.02 0.02 0.03 0.03 0.04 0.05 0.05 0.06 0.07 0.08 0.09 0.10 0.11
0.00 0.00 0.00 0.00 0.00 0.00 0.00 0.00 0.00 0.00 0.00 0.00 0.00 0.00 0.00 0.00 0.00 0.00 0.00 0.00 0.00 0.00 0.00 0.00 0.00 0.00 0.00 0.00 0.00 0.00 0.00 0.00 0.00 0.00 0.00 0.00 0.00 0.00 0.00 0.00 0.00 0.00 0.00 0.00 0.00 0.00 0.01 0.02 0.03 0.03 0.04 0.04 0.03 0.03 0.03 0.03 0.03 0.03 0.03 0.03 0.04 0.05 0.06 0.08 0.09 0.11 0.11 0.12 0.13
0.00 0.00 0.00 0.00 0.00 0.00 0.00 0.00 0.00 0.00 0.00 0.00 0.00 0.00 0.00 0.00 0.00 0.00 0.00 0.00 0.00 0.00 0.00 0.00 0.00 0.00 0.00 0.00 0.00 0.00 0.00 0.00 0.00 0.00 0.00 0.00 0.00 0.00 0.00 0.00 0.01 0.01 0.01 0.00 0.00 0.00 0.01 0.02 0.03 0.03 0.04 0.04 0.04 0.04 0.04 0.04 0.03 0.03 0.03 0.04 0.05 0.06 0.07 0.09 0.11 0.13 0.14 0.14 0.15
0.00 0.00 0.00 0.00 0.00 0.00 0.00 0.00 0.00 0.00 0.00 0.00 0.00 0.00 0.00 0.00 0.00 0.00 0.00 0.00 0.00 0.00 0.00 0.00 0.00 0.00 0.00 0.00 0.00 0.00 0.00 0.00 0.00 0.00 0.00 0.00 0.00 0.00 0.00 0.01 0.01 0.01 0.01 0.01 0.00 0.01 0.01 0.02 0.03 0.04 0.04 0.05 0.05 0.05 0.05 0.04 0.04 0.04 0.04 0.05 0.06 0.07 0.07 0.08 0.10 0.12 0.13 0.14 0.15
0.00 0.00 0.00 0.00 0.00 0.00 0.00 0.00 0.00 0.00 0.00 0.00 0.00 0.00 0.00 0.00 0.00 0.00 0.00 0.00 0.00 0.00 0.00 0.00 0.00 0.00 0.00 0.00 0.00 0.00 0.00 0.00 0.00 0.00 0.00 0.01 0.01 0.01 0.01 0.01 0.01 0.01 0.01 0.01 0.01 0.01 0.01 0.02 0.03 0.03 0.04 0.05 0.06 0.06 0.06 0.05 0.04 0.04 0.05 0.05 0.06 0.07 0.07 0.09 0.10 0.11 0.11 0.13 0.14
0.00 0.00 0.00 0.00 0.00 0.00 0.00 0.00 0.00 0.00 0.00 0.00 0.00 0.00 0.00 0.00 0.00 0.00 0.00 0.00 0.00 0.00 0.00 0.00 0.00 0.00 0.00 0.00 0.00 0.00 0.00 0.00 0.00 0.00 0.01 0.01 0.01 0.01 0.01 0.01 0.01 0.01 0.01 0.01 0.01 0.01 0.01 0.02 0.03 0.03 0.04 0.05 0.07 0.08 0.08 0.06 0.06 0.06 0.06 0.06 0.07 0.08 0.08 0.10 0.10 0.10 0.10 0.10 0.12
0.00 0.00 0.00 0.00 0.00 0.00 0.00 0.00 0.00 0.00 0.00 0.00 0.00 0.00 0.00 0.00 0.00 0.00 0.00 0.00 0.00 0.00 0.00 0.00 0.00 0.00 0.00 0.00 0.00 0.00 0.00 0.00 0.00 0.00 0.01 0.01 0.01 0.01 0.01 0.01 0.01 0.01 0.01 0.01 0.01 0.02 0.03 0.03 0.03 0.04 0.05 0.06 0.08 0.09 0.10 0.09 0.07 0.07 0.07 0.08 0.08 0.08 0.09 0.09 0.09 0.09 0.09 0.08 0.09
0.00 0.00 0.00 0.00 0.00 0.00 0.00 0.00 0.00 0.00 0.00 0.00 0.00 0.00 0.00 0.00 0.00 0.00 0.00 0.00 0.00 0.00 0.00 0.00 0.00 0.00 0.00 0.00 0.00 0.00 0.00 0.00 0.00 0.00 0.01 0.01 0.01 0.01 0.01 0.01 0.01 0.01 0.01 0.01 0.02 0.03 0.04 0.05 0.05 0.06 0.06 0.08 0.10 0.11 0.10 0.10 0.09 0.08 0.08 0.08 0.08 0.08 0.08 0.08 0.08 0.08 0.08 0.08 0.08
0.00 0.00 0.00 0.00 0.00 0.00 0.00 0.00 0.00 0.00 0.00 0.00 0.00 0.00 0.00 0.00 0.00 0.00 0.00 0.00 0.00 0.00 0.00 0.00 0.00 0.00 0.00 0.00 0.00 0.00 0.00 0.00 0.00 0.00 0.01 0.01 0.01 0.01 0.01 0.01 0.01 0.01 0.02 0.02 0.02 0.03 0.04 0.06 0.07 0.07 0.08 0.09 0.11 0.12 0.11 0.10 0.10 0.09 0.09 0.09 0.08 0.08 0.08 0.08 0.08 0.08 0.07 0.08 0.08
0.00 0.00 0.00 0.00 0.00 0.00 0.00 0.00 0.00 0.00 0.00 0.00 0.00 0.00 0.00 0.00 0.00 0.00 0.00 0.00 0.00 0.00 0.00 0.00 0.00 0.00 0.00 0.00 0.00 0.00 0.00 0.00 0.00 0.01 0.01 0.02 0.02 0.02 0.02 0.02 0.02 0.02 0.02 0.02 0.03 0.04 0.05 0.07 0.08 0.09 0.10 0.11 0.12 0.13 0.13 0.12 0.12 0.11 0.11 0.11 0.09 0.08 0.07 0.07 0.07 0.08 0.08 0.08 0.08
0.00 0.00 0.00 0.00 0.00 0.00 0.00 0.00 0.00 0.00 0.00 0.00 0.00 0.00 0.00 0.00 0.00 0.00 0.00 0.00 0.00 0.00 0.00 0.00 0.00 0.00 0.00 0.00 0.00 0.00 0.00 0.00 0.01 0.01 0.01 0.02 0.03 0.04 0.03 0.03 0.02 0.02 0.03 0.04 0.05 0.06 0.07 0.08 0.10 0.11 0.11 0.13 0.14 0.15 0.15 0.14 0.13 0.11 0.10 0.10 0.09 0.09 0.09 0.09 0.08 0.08 0.08 0.08 0.10
0.00 0.00 0.00 0.00 0.00 0.00 0.00 0.00 0.00 0.00 0.00 0.00 0.00 0.00 0.00 0.00 0.00 0.00 0.00 0.00 0.00 0.00 0.00 0.00 0.00 0.00 0.00 0.00 0.00 0.00 0.01 0.01 0.01 0.02 0.02 0.03 0.05 0.05 0.04 0.03 0.03 0.03 0.04 0.07 0.09 0.10 0.12 0.12 0.13 0.13 0.13 0.14 0.14 0.14 0.14 0.13 0.12 0.10 0.09 0.09 0.09 0.10 0.11 0.12 0.12 0.12 0.12 0.12 0.13
0.00 0.00 0.00 0.00 0.00 0.00 0.00 0.00 0.00 0.00 0.00 0.00 0.00 0.00 0.00 0.00 0.00 0.00 0.00 0.00 0.00 0.00 0.00 0.00 0.00 0.00 0.00 0.00 0.00 0.00 0.01 0.01 0.02 0.03 0.03 0.04 0.06 0.07 0.06 0.05 0.04 0.05 0.07 0.09 0.12 0.13 0.14 0.15 0.15 0.14 0.14 0.14 0.14 0.13 0.12 0.11 0.10 0.10 0.10 0.10 0.11 0.12 0.13 0.14 0.15 0.16 0.16 0.17 0.17
0.00 0.00 0.00 0.00 0.00 0.00 0.00 0.00 0.00 0.00 0.00 0.00 0.00 0.00 0.00 0.00 0.00 0.00 0.00 0.00 0.00 0.00 0.00 0.00 0.00 0.00 0.00 0.00 0.00 0.01 0.01 0.02 0.04 0.05 0.04 0.04 0.06 0.08 0.08 0.06 0.06 0.07 0.09 0.11 0.13 0.14 0.15 0.15 0.14 0.14 0.13 0.13 0.14 0.12 0.11 0.11 0.12 0.13 0.13 0.14 0.14 0.14 0.15 0.16 0.16 0.17 0.17 0.18 0.18
0.00 0.00 0.00 0.00 0.00 0.00 0.00 0.00 0.00 0.00 0.00 0.00 0.00 0.00 0.00 0.00 0.00 0.00 0.00 0.00 0.00 0.00 0.00 0.00 0.00 0.00 0.00 0.01 0.01 0.01 0.02 0.03 0.06 0.07 0.07 0.05 0.06 0.09 0.10 0.08 0.07 0.08 0.10 0.12 0.13 0.15 0.15 0.15 0.13 0.12 0.12 0.12 0.12 0.12 0.12 0.13 0.14 0.15 0.15 0.16 0.17 0.17 0.17 0.17 0.17 0.18 0.19 0.20 0.20
0.00 0.00 0.00 0.00 0.00 0.00 0.00 0.00 0.00 0.00 0.00 0.00 0.00 0.00 0.00 0.00 0.00 0.00 0.00 0.00 0.00 0.00 0.00 0.00 0.00 0.01 0.01 0.01 0.02 0.03 0.03 0.04 0.06 0.09 0.10 0.08 0.08 0.09 0.10 0.11 0.09 0.09 0.10 0.12 0.14 0.15 0.16 0.14 0.13 0.12 0.12 0.12 0.11 0.11 0.12 0.13 0.15 0.16 0.17 0.17 0.19 0.19 0.19 0.18 0.19 0.20 0.21 0.23 0.23
0.00 0.00 0.00 0.00 0.00 0.00 0.00 0.00 0.00 0.00 0.00 0.00 0.00 0.00 0.00 0.00 0.00 0.00 0.00 0.00 0.00 0.00 0.00 0.00 0.01 0.01 0.02 0.03 0.04 0.04 0.04 0.05 0.06 0.08 0.10 0.10 0.09 0.09 0.09 0.09 0.09 0.10 0.12 0.13 0.14 0.15 0.15 0.14 0.13 0.13 0.13 0.13 0.13 0.13 0.13 0.14 0.16 0.17 0.18 0.18 0.18 0.19 0.20 0.19 0.19 0.21 0.22 0.24 0.24
0.00 0.00 0.00 0.00 0.00 0.00 0.00 0.00 0.00 0.00 0.00 0.00 0.00 0.00 0.00 0.00 0.00 0.00 0.00 0.00 0.00 0.00 0.01 0.01 0.02 0.02 0.03 0.06 0.07 0.06 0.06 0.05 0.06 0.07 0.09 0.10 0.09 0.08 0.08 0.08 0.10 0.12 0.14 0.15 0.15 0.15 0.14 0.13 0.13 0.12 0.13 0.14 0.14 0.14 0.14 0.14 0.16 0.16 0.16 0.16 0.15 0.15 0.17 0.20 0.20 0.20 0.20 0.20 0.22
MSLP
1016.03 1015.95 1015.83 1015.79 1015.71 1015.67 1015.59 1015.55 1015.47 1015.39 1015.39 1015.35 1015.27 1015.19 1015.11 1015.07 1014.99 1014.83 1014.71 1014.63 1014.55 1014.43 1014.31 1014.23 1014.11 1013.99 1013.87 1013.79 1013.67 1013.55 1013.47 1013.35 1013.27 1013.11 1012.99 1012.87 1012.71 1012.55 1012.39 1012.19 1012.03 1011.87 1011.75 1011.63 1011.55 1011.43 1011.39 1011.31 1011.35 1011.27 1011.27 1011.27 1011.27 1011.27 1011.27 1011.27 1011.27 1011.23 1011.15 1011.07 1010.95 1010.83 1010.71 1010.63 1010.39 1010.19 1009.99 1009.87 1009.79
1015.95 1015.83 1015.79 1015.71 1015.67 1015.63 1015.55 1015.51 1015.39 1015.35 1015.27 1015.23 1015.11 1015.07 1014.99 1014.95 1014.83 1014.71 1014.55 1014.51 1014.39 1014.31 1014.23 1014.11 1013.99 1013.95 1013.83 1013.71 1013.67 1013.59 1013.51 1013.39 1013.27 1013.15 1013.07 1012.95 1012.79 1012.67 1012.55 1012.35 1012.15 1011.99 1011.83 1011.67 1011.55 1011.43 1011.35 1011.27 1011.27 1011.19 1011.11 1011.03 1011.03 1010.99 1010.99 1011.03 1011.15 1011.15 1011.07 1010.95 1010.87 1010.83 1010.67 1010.55 1010.35 1010.15 1009.95 1009.67 1009.55
1015.91 1015.83 1015.71 1015.67 1015.67 1015.59 1015.55 1015.47 1015.39 1015.35 1015.27 1015.15 1015.03 1014.95 1014.83 1014.75 1014.67 1014.59 1014.47 1014.35 1014.23 1014.15 1014.11 1013.99 1013.91 1013.83 1013.79 1013.67 1013.59 1013.55 1013.47 1013.39 1013.27 1013.15 1013.07 1012.95 1012.83 1012.71 1012.59 1012.47 1012.27 1012.11 1011.95 1011.75 1011.55 1011.39 1011.27 1011.19 1011.15 1011.11 1010.99 1010.91 1010.91 1010.83 1010.79 1010.83 1010.95 1010.99 1010.91 1010.83 1010.75 1010.67 1010.55 1010.39 1010.23 1010.11 1009.95 1009.67 1009.39
1015.83 1015.79 1015.71 1015.67 1015.63 1015.55 1015.51 1015.39 1015.39 1015.27 1015.15 1015.03 1014.95 1014.87 1014.79 1014.67 1014.59 1014.43 1014.31 1014.15 1014.11 1014.03 1013.95 1013.83 1013.79 1013.71 1013.67 1013.59 1013.51 1013.43 1013.35 1013.27 1013.23 1013.15 1013.07 1012.95 1012.83 1012.71 1012.67 1012.55 1012.39 1012.23 1012.03 1011.83 1011.63 1011.39 1011.27 1011.11 1011.03 1010.95 1010.83 1010.75 1010.75 1010.67 1010.63 1010.55 1010.67 1010.71 1010.67 1010.67 1010.63 1010.55 1010.43 1010.27 1010.11 1009.99 1009.83 1009.67 1009.39
1015.75 1015.67 1015.63 1015.55 1015.51 1015.43 1015.39 1015.31 1015.27 1015.15 1015.07 1014.95 1014.87 1014.79 1014.67 1014.55 1014.43 1014.35 1014.23 1014.11 1013.95 1013.87 1013.75 1013.67 1013.63 1013.55 1013.51 1013.43 1013.39 1013.35 1013.27 1013.23 1013.19 1013.11 1012.99 1012.91 1012.79 1012.67 1012.63 1012.55 1012.39 1012.27 1012.07 1011.83 1011.63 1011.39 1011.23 1011.11 1010.99 1010.83 1010.67 1010.63 1010.55 1010.47 1010.43 1010.43 1010.47 1010.47 1010.47 1010.43 1010.43 1010.39 1010.27 1010.15 1009.99 1009.91 1009.83 1009.67 1009.43
1015.63 1015.55 1015.47 1015.43 1015.35 1015.27 1015.19 1015.11 1015.07 1014.99 1014.87 1014.83 1014.83 1014.71 1014.63 1014.47 1014.31 1014.19 1014.11 1013.99 1013.83 1013.67 1013.59 1013.55 1013.47 1013.39 1013.35 1013.31 1013.27 1013.23 1013.23 1013.15 1013.11 1012.99 1012.95 1012.87 1012.75 1012.67 1012.55 1012.47 1012.35 1012.23 1012.07 1011.83 1011.59 1011.39 1011.19 1011.07 1010.87 1010.67 1010.55 1010.47 1010.39 1010.27 1010.27 1010.27 1010.27 1010.27 1010.27 1010.23 1010.15 1010.15 1010.11 1010.03 1009.91 1009.83 1009.75 1009.63 1009.47
1015.43 1015.39 1015.31 1015.27 1015.15 1015.07 1014.99 1014.95 1014.83 1014.79 1014.71 1014.71 1014.67 1014.63 1014.51 1014.35 1014.23 1014.11 1013.95 1013.83 1013.67 1013.59 1013.51 1013.39 1013.31 1013.27 1013.27 1013.23 1013.15 1013.11 1013.11 1013.07 1012.99 1012.91 1012.87 1012.83 1012.67 1012.55 1012.51 1012.39 1012.27 1012.15 1011.99 1011.79 1011.55 1011.35 1011.11 1010.99 1010.83 1010.63 1010.43 1010.35 1010.27 1010.11 1010.11 1010.11 1010.11 1010.11 1010.03 1009.95 1009.95 1009.95 1009.95 1009.83 1009.75 1009.67 1009.63 1009.51 1009.39
1015.23 1015.15 1015.07 1014.99 1014.95 1014.87 1014.83 1014.75 1014.67 1014.67 1014.59 1014.59 1014.55 1014.43 1014.31 1014.19 1014.11 1013.95 1013.79 1013.67 1013.59 1013.47 1013.35 1013.27 1013.23 1013.19 1013.15 1013.11 1013.11 1013.03 1012.99 1012.91 1012.83 1012.75 1012.71 1012.67 1012.55 1012.47 1012.35 1012.27 1012.11 1011.99 1011.87 1011.75 1011.55 1011.35 1011.11 1010.99 1010.79 1010.55 1010.39 1010.27 1010.11 1009.99 1009.91 1009.95 1009.91 1009.83 1009.83 1009.71 1009.67 1009.67 1009.71 1009.63 1009.55 1009.55 1009.43 1009.31 1009.23
1015.11 1015.03 1014.91 1014.83 1014.75 1014.71 1014.67 1014.55 1014.55 1014.55 1014.51 1014.39 1014.35 1014.27 1014.11 1013.95 1013.87 1013.79 1013.67 1013.55 1013.43 1013.31 1013.23 1013.15 1013.11 1013.07 1013.03 1012.99 1012.99 1012.87 1012.83 1012.75 1012.67 1012.59 1012.55 1012.51 1012.39 1012.27 1012.15 1012.07 1011.95 1011.83 1011.71 1011.59 1011.51 1011.35 1011.15 1010.99 1010.75 1010.51 1010.27 1010.11 1009.95 1009.79 1009.67 1009.71 1009.71 1009.67 1009.55 1009.51 1009.43 1009.39 1009.39 1009.39 1009.35 1009.31 1009.23 1009.11 1008.99
1015.07 1014.95 1014.83 1014.75 1014.63 1014.55 1014.51 1014.43 1014.39 1014.31 1014.27 1014.23 1014.11 1013.99 1013.91 1013.79 1013.67 1013.59 1013.51 1013.39 1013.27 1013.23 1013.15 1013.11 1013.03 1012.99 1012.95 1012.87 1012.83 1012.79 1012.71 1012.63 1012.55 1012.51 1012.39 1012.31 1012.27 1012.15 1012.03 1011.91 1011.83 1011.67 1011.55 1011.47 1011.39 1011.27 1011.11 1010.91 1010.67 1010.39 1010.15 1009.99 1009.79 1009.59 1009.51 1009.51 1009.51 1009.43 1009.35 1009.27 1009.23 1009.15 1009.11 1009.11 1009.11 1009.07 1008.99 1008.91 1008.75
1014.95 1014.83 1014.71 1014.63 1014.55 1014.43 1014.35 1014.27 1014.23 1014.15 1014.11 1013.99 1013.91 1013.83 1013.71 1013.59 1013.51 1013.39 1013.31 1013.23 1013.23 1013.15 1013.07 1012.99 1012.99 1012.91 1012.83 1012.75 1012.71 1012.67 1012.55 1012.51 1012.39 1012.35 1012.27 1012.15 1012.07 1011.95 1011.87 1011.79 1011.67 1011.55 1011.43 1011.31 1011.27 1011.19 1010.99 1010.79 1010.55 1010.27 1009.99 1009.83 1009.67 1009.47 1009.31 1009.27 1009.23 1009.15 1009.03 1008.99 1008.99 1008.95 1008.91 1008.83 1008.83 1008.83 1008.75 1008.63 1008.51
1014.79 1014.63 1014.51 1014.39 1014.31 1014.27 1014.23 1014.15 1014.07 1013.95 1013.87 1013.83 1013.67 1013.63 1013.55 1013.43 1013.35 1013.27 1013.15 1013.11 1013.11 1013.03 1012.99 1012.91 1012.87 1012.83 1012.79 1012.71 1012.63 1012.55 1012.51 1012.39 1012.35 1012.27 1012.15 1012.03 1011.91 1011.83 1011.71 1011.59 1011.51 1011.39 1011.27 1011.11 1011.11 1011.03 1010.83 1010.55 1010.31 1010.07 1009.83 1009.63 1009.47 1009.27 1009.11 1008.99 1008.95 1008.87 1008.79 1008.71 1008.67 1008.67 1008.63 1008.59 1008.55 1008.55 1008.47 1008.39 1008.27
1014.59 1014.47 1014.35 1014.23 1014.11 1014.11 1014.07 1013.95 1013.87 1013.79 1013.67 1013.63 1013.55 1013.43 1013.35 1013.27 1013.19 1013.11 1013.11 1013.07 1013.07 1012.99 1012.91 1012.87 1012.83 1012.83 1012.75 1012.67 1012.59 1012.55 1012.47 1012.39 1012.27 1012.19 1012.07 1011.91 1011.75 1011.67 1011.55 1011.39 1011.27 1011.19 1011.07 1010.95 1010.87 1010.83 1010.67 1010.39 1010.19 1009.95 1009.71 1009.43 1009.27 1009.11 1008.95 1008.83 1008.71 1008.59 1008.51 1008.39 1008.39 1008.35 1008.31 1008.27 1008.27 1008.27 1008.19 1008.15 1008.07
1014.39 1014.27 1014.15 1014.03 1013.95 1013.95 1013.87 1013.79 1013.67 1013.59 1013.51 1013.43 1013.35 1013.27 1013.15 1013.11 1013.07 1013.03 1013.03 1012.99 1012.99 1012.95 1012.91 1012.83 1012.75 1012.71 1012.67 1012.67 1012.55 1012.55 1012.43 1012.31 1012.23 1012.11 1011.95 1011.75 1011.63 1011.51 1011.35 1011.19 1011.07 1010.99 1010.83 1010.71 1010.63 1010.55 1010.39 1010.23 1009.99 1009.83 1009.55 1009.31 1009.07 1008.87 1008.75 1008.63 1008.47 1008.35 1008.27 1008.15 1008.07 1007.99 1007.95 1007.95 1007.99 1007.99 1007.95 1007.91 1007.83
1014.19 1014.11 1013.99 1013.91 1013.83 1013.75 1013.67 1013.63 1013.55 1013.43 1013.35 1013.27 1013.19 1013.11 1013.03 1012.99 1012.95 1012.95 1012.95 1012.95 1012.95 1012.87 1012.83 1012.83 1012.71 1012.63 1012.63 1012.59 1012.55 1012.47 1012.39 1012.27 1012.11 1011.95 1011.79 1011.55 1011.39 1011.27 1011.11 1010.99 1010.83 1010.71 1010.63 1010.47 1010.35 1010.23 1010.11 1009.95 1009.83 1009.63 1009.39 1009.15 1008.91 1008.67 1008.55 1008.39 1008.23 1008.11 1007.95 1007.83 1007.75 1007.67 1007.63 1007.67 1007.71 1007.75 1007.75 1007.71 1007.67
1014.03 1013.95 1013.87 1013.79 1013.67 1013.63 1013.55 1013.47 1013.35 1013.27 1013.19 1013.11 1012.99 1012.95 1012.91 1012.91 1012.87 1012.87 1012.87 1012.87 1012.83 1012.83 1012.75 1012.71 1012.67 1012.55 1012.51 1012.43 1012.39 1012.35 1012.27 1012.07 1011.95 1011.75 1011.55 1011.35 1011.15 1010.99 1010.87 1010.75 1010.59 1010.47 1010.35 1010.19 1010.07 1009.91 1009.79 1009.67 1009.55 1009.39 1009.23 1008.99 1008.75 1008.51 1008.27 1008.11 1007.95 1007.79 1007.67 1007.55 1007.43 1007.39 1007.35 1007.39 1007.43 1007.47 1007.51 1007.51 1007.51
1013.95 1013.83 1013.75 1013.67 1013.55 1013.47 1013.39 1013.31 1013.19 1013.11 1013.03 1012.99 1012.87 1012.83 1012.83 1012.79 1012.75 1012.75 1012.75 1012.75 1012.75 1012.67 1012.67 1012.59 1012.55 1012.47 1012.39 1012.27 1012.23 1012.19 1012.11 1011.87 1011.67 1011.51 1011.27 1011.07 1010.87 1010.71 1010.55 1010.43 1010.27 1010.15 1010.07 1009.95 1009.83 1009.63 1009.47 1009.39 1009.27 1009.11 1008.99 1008.83 1008.55 1008.31 1008.11 1007.87 1007.67 1007.51 1007.35 1007.27 1007.19 1007.11 1007.07 1007.11 1007.15 1007.23 1007.23 1007.23 1007.27
1013.83 1013.67 1013.59 1013.51 1013.43 1013.35 1013.23 1013.11 1013.07 1012.99 1012.91 1012.83 1012.75 1012.67 1012.67 1012.67 1012.59 1012.55 1012.55 1012.55 1012.55 1012.55 1012.51 1012.43 1012.39 1012.31 1012.23 1012.11 1012.03 1011.95 1011.87 1011.67 1011.39 1011.19 1010.99 1010.83 1010.59 1010.43 1010.27 1010.11 1009.95 1009.83 1009.75 1009.63 1009.51 1009.31 1009.15 1009.03 1008.91 1008.83 1008.67 1008.55 1008.35 1008.11 1007.87 1007.63 1007.39 1007.19 1007.03 1006.99 1006.91 1006.83 1006.79 1006.79 1006.83 1006.91 1006.95 1006.95 1006.99
1013.67 1013.55 1013.43 1013.39 1013.27 1013.15 1013.07 1012.99 1012.91 1012.83 1012.71 1012.67 1012.59 1012.55 1012.47 1012.43 1012.39 1012.39 1012.35 1012.27 1012.27 1012.31 1012.27 1012.23 1012.11 1012.07 1011.95 1011.91 1011.79 1011.67 1011.59 1011.39 1011.15 1010.95 1010.71 1010.55 1010.31 1010.11 1009.95 1009.75 1009.63 1009.51 1009.39 1009.27 1009.11 1008.99 1008.87 1008.71 1008.59 1008.47 1008.39 1008.27 1008.07 1007.83 1007.63 1007.39 1007.15 1006.91 1006.75 1006.63 1006.55 1006.47 1006.43 1006.43 1006.55 1006.59 1006.63 1006.67 1006.67
1013.55 1013.39 1013.31 1013.27 1013.11 1012.99 1012.91 1012.83 1012.71 1012.63 1012.55 1012.43 1012.39 1012.35 1012.27 1012.23 1012.23 1012.19 1012.11 1012.07 1012.03 1012.03 1011.99 1011.95 1011.87 1011.79 1011.67 1011.55 1011.47 1011.35 1011.23 1011.11 1010.87 1010.63 1010.39 1010.15 1009.95 1009.75 1009.55 1009.39 1009.27 1009.15 1009.07 1008.95 1008.83 1008.67 1008.55 1008.43 1008.27 1008.15 1008.07 1007.95 1007.75 1007.55 1007.39 1007.15 1006.91 1006.67 1006.47 1006.35 1006.23 1006.11 1006.11 1006.11 1006.19 1006.27 1006.35 1006.39 1006.39
1013.43 1013.31 1013.23 1013.11 1012.99 1012.87 1012.75 1012.67 1012.55 1012.43 1012.35 1012.27 1012.23 1012.15 1012.11 1012.03 1011.99 1011.95 1011.87 1011.79 1011.75 1011.71 1011.67 1011.63 1011.55 1011.51 1011.39 1011.27 1011.11 1010.99 1010.83 1010.67 1010.51 1010.27 1009.99 1009.83 1009.59 1009.39 1009.19 1009.11 1008.95 1008.83 1008.67 1008.55 1008.43 1008.27 1008.19 1008.11 1007.95 1007.83 1007.71 1007.63 1007.43 1007.27 1007.03 1006.83 1006.59 1006.35 1006.15 1005.99 1005.87 1005.79 1005.71 1005.75 1005.83 1005.95 1005.99 1006.07 1006.11
1013.39 1013.27 1013.11 1012.99 1012.87 1012.75 1012.63 1012.47 1012.35 1012.27 1012.19 1012.11 1012.03 1011.95 1011.91 1011.83 1011.79 1011.67 1011.59 1011.51 1011.43 1011.39 1011.35 1011.27 1011.23 1011.11 1011.03 1010.91 1010.75 1010.59 1010.39 1010.23 1010.07 1009.87 1009.67 1009.43 1009.23 1008.99 1008.83 1008.75 1008.63 1008.47 1008.31 1008.23 1008.07 1007.91 1007.79 1007.67 1007.59 1007.51 1007.39 1007.27 1007.11 1006.91 1006.71 1006.55 1006.31 1006.07 1005.83 1005.67 1005.55 1005.43 1005.39 1005.39 1005.51 1005.59 1005.67 1005.67 1005.75
1013.39 1013.27 1013.07 1012.91 1012.79 1012.63 1012.47 1012.31 1012.19 1012.11 1011.99 1011.91 1011.83 1011.79 1011.67 1011.63 1011.55 1011.43 1011.35 1011.27 1011.15 1011.11 1011.03 1010.95 1010.87 1010.79 1010.67 1010.55 1010.39 1010.23 1010.07 1009.83 1009.63 1009.43 1009.27 1009.07 1008.87 1008.67 1008.51 1008.39 1008.31 1008.11 1007.91 1007.75 1007.63 1007.51 1007.39 1007.27 1007.15 1007.11 1007.03 1006.91 1006.67 1006.51 1006.31 1006.15 1005.95 1005.71 1005.55 1005.35 1005.23 1005.11 1005.07 1005.07 1005.15 1005.27 1005.35 1005.39 1005.43
1013.39 1013.23 1013.03 1012.83 1012.67 1012.51 1012.35 1012.19 1012.07 1011.95 1011.83 1011.71 1011.67 1011.55 1011.47 1011.39 1011.27 1011.19 1011.11 1010.99 1010.83 1010.75 1010.67 1010.55 1010.51 1010.39 1010.27 1010.11 1009.99 1009.87 1009.67 1009.43 1009.19 1008.99 1008.75 1008.59 1008.47 1008.27 1008.11 1008.03 1007.91 1007.71 1007.51 1007.35 1007.23 1007.11 1006.99 1006.95 1006.83 1006.67 1006.55 1006.47 1006.27 1006.11 1005.91 1005.71 1005.55 1005.35 1005.15 1004.99 1004.87 1004.79 1004.71 1004.71 1004.83 1004.99 1005.03 1005.07 1005.15
1013.35 1013.15 1012.99 1012.79 1012.63 1012.43 1012.27 1012.11 1011.95 1011.79 1011.63 1011.55 1011.43 1011.35 1011.27 1011.15 1011.07 1010.95 1010.83 1010.67 1010.55 1010.39 1010.31 1010.23 1010.11 1009.99 1009.87 1009.71 1009.55 1009.39 1009.27 1009.03 1008.79 1008.55 1008.31 1008.11 1007.95 1007.83 1007.71 1007.59 1007.43 1007.27 1007.11 1006.95 1006.79 1006.63 1006.59 1006.59 1006.55 1006.39 1006.27 1006.11 1005.95 1005.75 1005.55 1005.35 1005.11 1004.95 1004.75 1004.63 1004.51 1004.39 1004.39 1004.43 1004.55 1004.67 1004.79 1004.83 1004.91
1013.27 1013.11 1012.95 1012.75 1012.55 1012.39 1012.19 1011.99 1011.83 1011.67 1011.51 1011.39 1011.27 1011.15 1011.07 1010.95 1010.83 1010.67 1010.55 1010.39 1010.23 1010.11 1009.95 1009.87 1009.79 1009.67 1009.51 1009.35 1009.11 1008.95 1008.75 1008.55 1008.39 1008.15 1007.95 1007.75 1007.55 1007.39 1007.27 1007.19 1007.03 1006.83 1006.67 1006.43 1006.27 1006.11 1006.11 1006.11 1006.11 1006.07 1005.99 1005.83 1005.63 1005.43 1005.23 1004.99 1004.75 1004.55 1004.39 1004.27 1004.11 1004.11 1004.11 1004.15 1004.31 1004.47 1004.55 1004.63 1004.71
1013.27 1013.07 1012.87 1012.71 1012.55 1012.31 1012.11 1011.95 1011.75 1011.59 1011.39 1011.27 1011.15 1010.99 1010.83 1010.75 1010.59 1010.43 1010.27 1010.11 1009.95 1009.79 1009.67 1009.59 1009.47 1009.31 1009.11 1008.95 1008.71 1008.47 1008.27 1008.07 1007.95 1007.75 1007.55 1007.39 1007.19 1006.99 1006.83 1006.67 1006.51 1006.35 1006.11 1005.95 1005.75 1005.67 1005.59 1005.55 1005.55 1005.55 1005.55 1005.47 1005.31 1005.11 1004.87 1004.59 1004.39 1004.19 1003.99 1003.83 1003.79 1003.71 1003.75 1003.87 1004.07 1004.27 1004.39 1004.51 1004.55
1013.27 1013.11 1012.87 1012.67 1012.47 1012.27 1012.03 1011.83 1011.67 1011.55 1011.35 1011.19 1011.03 1010.87 1010.67 1010.55 1010.39 1010.23 1010.03 1009.83 1009.67 1009.55 1009.39 1009.27 1009.11 1008.99 1008.79 1008.55 1008.27 1008.03 1007.83 1007.67 1007.55 1007.39 1007.19 1007.03 1006.83 1006.59 1006.39 1006.19 1005.99 1005.79 1005.59 1005.43 1005.27 1005.19 1005.11 1004.99 1004.95 1004.95 1004.95 1004.95 1004.83 1004.67 1004.47 1004.27 1003.99 1003.83 1003.59 1003.43 1003.35 1003.35 1003.43 1003.55 1003.83 1004.11 1004.27 1004.39 1004.55
1013.23 1013.03 1012.83 1012.63 1012.39 1012.19 1011.95 1011.83 1011.67 1011.47 1011.27 1011.11 1010.95 1010.75 1010.55 1010.35 1010.15 1009.95 1009.79 1009.59 1009.43 1009.27 1009.11 1008.91 1008.75 1008.59 1008.39 1008.11 1007.87 1007.67 1007.47 1007.31 1007.15 1006.99 1006.83 1006.59 1006.39 1006.11 1005.91 1005.71 1005.51 1005.27 1005.07 1004.95 1004.83 1004.71 1004.59 1004.51 1004.43 1004.39 1004.35 1004.35 1004.31 1004.19 1003.95 1003.75 1003.55 1003.35 1003.15 1003.03 1002.99 1002.99 1003.15 1003.35 1003.67 1003.91 1004.11 1004.27 1004.39
1013.19 1012.99 1012.83 1012.59 1012.35 1012.11 1011.91 1011.75 1011.55 1011.39 1011.23 1011.03 1010.83 1010.63 1010.39 1010.19 1009.95 1009.75 1009.55 1009.39 1009.15 1008.99 1008.83 1008.67 1008.47 1008.27 1007.99 1007.75 1007.55 1007.35 1007.11 1006.91 1006.75 1006.59 1006.39 1006.19 1005.91 1005.63 1005.39 1005.19 1004.99 1004.75 1004.55 1004.39 1004.27 1004.15 1004.07 1003.95 1003.87 1003.83 1003.75 1003.71 1003.75 1003.67 1003.47 1003.27 1003.07 1002.91 1002.75 1002.67 1002.63 1002.71 1002.87 1003.11 1003.43 1003.71 1003.95 1004.11 1004.31
1013.15 1012.99 1012.83 1012.55 1012.31 1012.07 1011.83 1011.63 1011.47 1011.31 1011.11 1010.91 1010.67 1010.47 1010.27 1010.03 1009.79 1009.55 1009.31 1009.11 1008.87 1008.67 1008.51 1008.35 1008.15 1007.91 1007.67 1007.39 1007.23 1007.03 1006.79 1006.55 1006.39 1006.19 1005.99 1005.75 1005.43 1005.11 1004.83 1004.67 1004.39 1004.15 1003.95 1003.83 1003.71 1003.59 1003.47 1003.39 1003.27 1003.19 1003.11 1003.15 1003.19 1003.11 1002.95 1002.75 1002.55 1002.39 1002.35 1002.31 1002.39 1002.47 1002.67 1002.95 1003.23 1003.51 1003.71 1003.95 1004.15
1013.11 1012.95 1012.71 1012.51 1012.23 1011.95 1011.75 1011.55 1011.39 1011.19 1010.99 1010.79 1010.55 1010.31 1010.07 1009.83 1009.55 1009.31 1009.11 1008.87 1008.67 1008.39 1008.19 1007.99 1007.79 1007.55 1007.27 1007.07 1006.87 1006.67 1006.39 1006.23 1005.95 1005.75 1005.55 1005.27 1004.99 1004.67 1004.35 1004.11 1003.83 1003.59 1003.39 1003.27 1003.15 1002.99 1002.83 1002.71 1002.63 1002.55 1002.55 1002.55 1002.55 1002.51 1002.39 1002.23 1002.11 1001.99 1001.99 1002.03 1002.11 1002.27 1002.43 1002.71 1003.03 1003.27 1003.55 1003.71 1003.91
1013.11 1012.91 1012.67 1012.39 1012.11 1011.87 1011.67 1011.51 1011.27 1011.11 1010.87 1010.63 1010.39 1010.11 1009.83 1009.55 1009.31 1009.07 1008.83 1008.67 1008.43 1008.23 1007.95 1007.71 1007.47 1007.23 1006.99 1006.67 1006.47 1006.23 1005.95 1005.75 1005.51 1005.27 1005.03 1004.83 1004.55 1004.19 1003.83 1003.55 1003.27 1002.99 1002.79 1002.63 1002.47 1002.31 1002.15 1002.07 1001.95 1001.87 1001.87 1001.95 1001.95 1001.95 1001.83 1001.71 1001.67 1001.67 1001.67 1001.79 1001.91 1002.03 1002.27 1002.51 1002.79 1003.03 1003.27 1003.51 1003.63
1013.11 1012.83 1012.55 1012.31 1012.07 1011.83 1011.59 1011.39 1011.15 1010.99 1010.71 1010.43 1010.15 1009.91 1009.67 1009.39 1009.11 1008.83 1008.55 1008.35 1008.19 1007.99 1007.71 1007.43 1007.19 1006.95 1006.67 1006.39 1006.11 1005.83 1005.55 1005.27 1005.03 1004.79 1004.55 1004.27 1003.99 1003.67 1003.31 1002.95 1002.63 1002.35 1002.11 1001.95 1001.83 1001.67 1001.51 1001.39 1001.31 1001.27 1001.27 1001.39 1001.43 1001.39 1001.27 1001.27 1001.31 1001.35 1001.39 1001.55 1001.71 1001.91 1002.11 1002.39 1002.63 1002.83 1003.07 1003.27 1003.51
1012.99 1012.75 1012.51 1012.23 1011.99 1011.75 1011.47 1011.27 1010.99 1010.75 1010.47 1010.19 1009.87 1009.59 1009.35 1009.15 1008.87 1008.63 1008.35 1008.11 1007.91 1007.67 1007.39 1007.11 1006.83 1006.59 1006.31 1006.03 1005.75 1005.47 1005.19 1004.83 1004.55 1004.31 1004.03 1003.75 1003.47 1003.11 1002.71 1002.31 1001.95 1001.67 1001.47 1001.31 1001.15 1000.99 1000.87 1000.83 1000.67 1000.67 1000.75 1000.83 1000.91 1000.87 1000.83 1000.87 1000.99 1001.07 1001.19 1001.39 1001.63 1001.83 1002.11 1002.39 1002.59 1002.83 1002.99 1003.23 1003.39
1012.87 1012.67 1012.43 1012.15 1011.87 1011.55 1011.27 1011.03 1010.79 1010.51 1010.19 1009.91 1009.63 1009.35 1009.07 1008.83 1008.55 1008.31 1008.11 1007.87 1007.59 1007.27 1006.99 1006.67 1006.47 1006.23 1005.91 1005.59 1005.31 1005.07 1004.83 1004.47 1004.11 1003.79 1003.47 1003.23 1002.99 1002.59 1002.11 1001.67 1001.27 1000.99 1000.79 1000.67 1000.51 1000.35 1000.27 1000.15 1000.11 1000.11 1000.19 1000.35 1000.39 1000.43 1000.43 1000.55 1000.67 1000.83 1001.03 1001.27 1001.55 1001.83 1002.11 1002.39 1002.67 1002.87 1003.11 1003.27 1003.51
1012.79 1012.55 1012.31 1011.99 1011.67 1011.35 1011.07 1010.83 1010.55 1010.27 1009.91 1009.63 1009.35 1009.07 1008.79 1008.51 1008.23 1007.95 1007.75 1007.55 1007.27 1006.95 1006.59 1006.31 1006.07 1005.79 1005.51 1005.19 1004.87 1004.55 1004.27 1003.99 1003.67 1003.31 1002.99 1002.67 1002.39 1002.07 1001.59 1001.11 1000.67 1000.31 1000.11 999.95 999.83 999.71 999.59 999.47 999.39 999.47 999.63 999.83 999.95 1000.03 1000.11 1000.31 1000.55 1000.75 1000.99 1001.27 1001.55 1001.83 1002.11 1002.39 1002.67 1002.95 1003.19 1003.39 1003.63
1012.63 1012.39 1012.15 1011.83 1011.51 1011.15 1010.87 1010.59 1010.31 1009.99 1009.67 1009.35 1009.07 1008.75 1008.47 1008.23 1007.91 1007.59 1007.39 1007.27 1006.99 1006.63 1006.27 1005.95 1005.67 1005.39 1005.03 1004.75 1004.39 1004.03 1003.71 1003.43 1003.19 1002.87 1002.47 1002.11 1001.79 1001.47 1001.07 1000.55 1000.07 999.67 999.39 999.27 999.11 998.99 998.83 998.71 998.63 998.67 998.99 999.31 999.51 999.67 999.91 1000.15 1000.47 1000.71 1000.99 1001.27 1001.63 1001.95 1002.19 1002.47 1002.75 1003.03 1003.27 1003.51 1003.71
1012.47 1012.27 1011.95 1011.67 1011.31 1010.99 1010.67 1010.39 1010.07 1009.75 1009.43 1009.11 1008.75 1008.43 1008.15 1007.91 1007.63 1007.31 1007.11 1006.95 1006.67 1006.35 1005.95 1005.59 1005.23 1004.87 1004.55 1004.31 1003.95 1003.55 1003.11 1002.83 1002.59 1002.31 1001.99 1001.59 1001.23 1000.91 1000.55 1000.11 999.55 999.11 998.75 998.55 998.39 998.27 998.07 997.95 997.91 998.11 998.43 998.83 999.11 999.35 999.67 1000.03 1000.39 1000.71 1000.99 1001.31 1001.67 1002.03 1002.31 1002.59 1002.87 1003.19 1003.47 1003.67 1003.83
1012.35 1012.11 1011.83 1011.55 1011.19 1010.83 1010.51 1010.15 1009.83 1009.55 1009.27 1008.91 1008.55 1008.23 1007.91 1007.67 1007.39 1007.11 1006.83 1006.59 1006.31 1005.99 1005.67 1005.27 1004.83 1004.43 1004.15 1003.87 1003.51 1003.07 1002.63 1002.23 1001.95 1001.75 1001.47 1001.11 1000.75 1000.39 1000.07 999.67 999.11 998.55 998.11 997.83 997.63 997.43 997.35 997.35 997.51 997.83 998.15 998.51 998.79 999.11 999.51 999.91 1000.31 1000.67 1000.99 1001.35 1001.67 1002.07 1002.43 1002.79 1003.07 1003.39 1003.67 1003.95 1004.11
1012.23 1011.95 1011.67 1011.35 1011.07 1010.75 1010.39 1009.99 1009.67 1009.31 1008.99 1008.75 1008.39 1008.07 1007.75 1007.43 1007.11 1006.83 1006.55 1006.27 1005.95 1005.67 1005.27 1004.87 1004.43 1004.07 1003.75 1003.47 1003.11 1002.67 1002.19 1001.75 1001.39 1001.19 1000.99 1000.67 1000.27 999.91 999.51 999.07 998.55 998.03 997.55 997.23 996.99 996.87 996.95 997.15 997.39 997.71 998.03 998.35 998.67 998.99 999.35 999.71 1000.19 1000.59 1000.99 1001.31 1001.67 1002.07 1002.51 1002.95 1003.27 1003.59 1003.91 1004.19 1004.51
Thickness
5454 5454 5454 5454 5454 5454 5454 5455 5455 5455 5455 5454 5454 5455 5456 5456 5457 5458 5459 5460 5460 5461 5462 5463 5465 5466 5467 5468 5469 5470 5471 5472 5473 5474 5475 5476 5477 5479 5481 5482 5485 5487 5488 5490 5492 5493 5495 5496 5496 5497 5498 5500 5501 5502 5502 5503 5503 5504 5505 5507 5509 5511 5513 5515 5518 5522 5526 5529 5531
5449 5449 5449 5449 5449 5449 5449 5449 5449 5449 5449 5449 5449 5449 5450 5450 5451 5452 5453 5454 5455 5455 5456 5457 5458 5458 5459 5460 5461 5462 5463 5464 5466 5467 5468 5469 5471 5472 5473 5475 5477 5478 5480 5483 5485 5487 5488 5489 5490 5491 5493 5495 5497 5498 5499 5499 5499 5499 5500 5502 5504 5506 5508 5511 5513 5517 5521 5525 5527
5444 5444 5444 5443 5443 5443 5443 5443 5443 5443 5443 5443 5444 5444 5444 5445 5446 5446 5447 5448 5448 5449 5449 5450 5451 5451 5452 5452 5454 5454 5455 5456 5458 5459 5460 5462 5463 5464 5466 5467 5469 5470 5473 5475 5477 5479 5481 5483 5484 5485 5487 5490 5491 5494 5495 5496 5495 5495 5495 5497 5498 5501 5502 5506 5508 5511 5514 5518 5522
5439 5438 5438 5438 5437 5437 5436 5436 5436 5436 5436 5437 5437 5438 5438 5439 5440 5440 5441 5442 5443 5443 5443 5444 5444 5445 5445 5446 5447 5447 5448 5449 5450 5451 5453 5454 5456 5457 5458 5459 5461 5463 5465 5467 5469 5472 5474 5476 5477 5480 5481 5484 5486 5488 5490 5491 5491 5491 5491 5492 5494 5496 5498 5500 5503 5505 5508 5511 5514
5434 5433 5433 5432 5431 5431 5430 5430 5430 5430 5430 5430 5431 5431 5432 5432 5433 5434 5435 5436 5436 5437 5437 5438 5438 5438 5439 5439 5439 5440 5440 5442 5442 5443 5445 5447 5448 5450 5451 5452 5453 5455 5457 5459 5462 5464 5466 5469 5470 5473 5476 5478 5480 5482 5485 5485 5486 5486 5486 5487 5489 5491 5493 5494 5497 5500 5502 5504 5507
5429 5428 5428 5426 5426 5425 5424 5424 5424 5423 5423 5423 5424 5424 5424 5425 5425 5426 5427 5428 5430 5430 5431 5431 5431 5431 5432 5432 5433 5433 5433 5434 5435 5436 5436 5437 5439 5441 5443 5444 5446 5448 5449 5452 5455 5457 5459 5461 5464 5466 5469 5472 5474 5477 5479 5480 5480 5481 5482 5484 5485 5486 5488 5490 5492 5494 5496 5498 5501
5424 5424 5423 5422 5421 5420 5419 5418 5418 5417 5417 5417 5417 5417 5417 5418 5418 5420 5420 5421 5422 5423 5424 5424 5424 5424 5425 5425 5425 5425 5426 5426 5427 5428 5429 5430 5432 5433 5435 5437 5438 5440 5442 5444 5446 5449 5451 5453 5456 5459 5462 5465 5468 5471 5473 5474 5475 5475 5477 5479 5481 5482 5484 5486 5488 5489 5491 5493 5495
5419 5419 5419 5417 5416 5415 5413 5412 5412 5411 5411 5410 5410 5410 5410 5411 5411 5412 5413 5413 5414 5415 5416 5416 5416 5416 5416 5417 5417 5418 5418 5419 5420 5421 5421 5422 5424 5426 5428 5430 5431 5433 5434 5436 5438 5441 5443 5445 5448 5451 5455 5458 5461 5464 5466 5468 5468 5469 5472 5474 5476 5477 5479 5481 5483 5484 5486 5488 5491
5412 5413 5412 5412 5410 5409 5407 5406 5405 5404 5404 5403 5403 5403 5404 5404 5405 5405 5405 5405 5406 5407 5407 5407 5408 5408 5408 5409 5409 5410 5411 5411 5412 5413 5414 5415 5417 5419 5421 5423 5424 5426 5428 5429 5431 5432 5434 5436 5440 5444 5448 5451 5454 5458 5460 5461 5462 5464 5466 5468 5471 5473 5475 5476 5478 5479 5482 5484 5486
5404 5404 5404 5404 5403 5401 5400 5399 5398 5396 5396 5395 5396 5396 5397 5396 5397 5397 5397 5397 5398 5398 5398 5399 5399 5399 5399 5400 5401 5401 5402 5403 5404 5405 5406 5408 5410 5411 5413 5415 5417 5419 5420 5421 5423 5424 5426 5428 5431 5436 5440 5444 5447 5450 5452 5455 5456 5457 5460 5463 5465 5468 5470 5472 5473 5474 5476 5479 5483
5398 5398 5397 5396 5395 5394 5393 5391 5390 5389 5387 5387 5387 5388 5388 5388 5388 5389 5389 5389 5389 5389 5389 5390 5389 5390 5390 5391 5391 5392 5393 5394 5395 5397 5398 5400 5402 5404 5406 5407 5409 5411 5413 5414 5415 5417 5418 5421 5425 5429 5433 5436 5440 5443 5446 5448 5450 5451 5454 5457 5459 5462 5464 5466 5468 5470 5472 5475 5478
5392 5392 5392 5390 5389 5388 5386 5384 5383 5381 5380 5380 5379 5379 5380 5380 5380 5379 5379 5379 5379 5379 5380 5380 5380 5380 5380 5381 5382 5382 5384 5385 5386 5387 5389 5391 5393 5395 5397 5399 5401 5403 5405 5407 5408 5409 5411 5414 5417 5421 5425 5429 5432 5436 5439 5442 5444 5445 5448 5451 5453 5456 5459 5461 5463 5465 5468 5470 5473
5387 5386 5386 5385 5383 5381 5380 5378 5376 5374 5373 5372 5372 5371 5371 5371 5371 5371 5370 5370 5369 5369 5369 5369 5370 5370 5370 5370 5371 5372 5373 5375 5375 5377 5379 5382 5384 5386 5389 5391 5393 5395 5397 5399 5400 5402 5404 5406 5410 5413 5418 5422 5426 5429 5432 5435 5437 5440 5442 5444 5447 5450 5453 5456 5458 5460 5462 5465 5468
5381 5380 5379 5378 5376 5375 5373 5370 5369 5367 5366 5365 5364 5363 5363 5363 5362 5362 5361 5360 5359 5359 5358 5359 5359 5360 5359 5360 5360 5362 5363 5365 5366 5368 5370 5372 5375 5377 5380 5383 5385 5387 5389 5391 5392 5395 5396 5399 5402 5405 5410 5414 5418 5422 5425 5428 5431 5433 5436 5438 5442 5445 5447 5450 5452 5455 5457 5459 5462
5374 5373 5372 5370 5368 5366 5364 5363 5361 5359 5358 5357 5356 5355 5355 5354 5353 5352 5351 5350 5349 5348 5348 5348 5348 5349 5349 5350 5351 5352 5352 5354 5356 5358 5361 5363 5366 5369 5371 5374 5376 5378 5380 5382 5385 5387 5389 5392 5394 5398 5402 5406 5410 5415 5418 5422 5424 5427 5430 5433 5436 5439 5441 5444 5446 5449 5451 5454 5456
5367 5366 5364 5362 5360 5358 5356 5355 5353 5351 5349 5348 5347 5347 5345 5345 5344 5342 5341 5340 5339 5338 5338 5338 5338 5338 5339 5341 5341 5342 5343 5344 5347 5349 5351 5354 5357 5360 5362 5364 5367 5369 5371 5374 5376 5379 5382 5384 5387 5390 5393 5397 5402 5407 5411 5414 5418 5421 5424 5427 5430 5433 5435 5438 5440 5443 5445 5447 5449
5359 5357 5356 5354 5352 5349 5348 5346 5344 5342 5341 5340 5338 5338 5336 5336 5335 5334 5332 5331 5329 5328 5328 5328 5328 5328 5329 5331 5332 5332 5333 5335 5337 5340 5342 5345 5349 5351 5354 5356 5359 5361 5363 5365 5367 5371 5373 5376 5379 5382 5385 5388 5393 5398 5403 5407 5411 5415 5417 5421 5424 5427 5430 5432 5434 5436 5439 5441 5444
5351 5349 5347 5345 5343 5341 5339 5337 5336 5334 5332 5331 5330 5329 5328 5327 5326 5324 5324 5322 5321 5320 5319 5319 5319 5319 5320 5322 5322 5323 5324 5326 5328 5331 5334 5337 5340 5342 5345 5348 5351 5352 5354 5356 5359 5362 5365 5369 5371 5374 5377 5380 5384 5389 5394 5399 5404 5408 5411 5414 5418 5421 5423 5426 5428 5430 5432 5435 5438
5343 5341 5339 5337 5334 5332 5330 5329 5327 5325 5324 5323 5322 5321 5320 5319 5318 5317 5315 5315 5314 5312 5311 5311 5311 5312 5313 5314 5314 5315 5316 5318 5320 5322 5326 5328 5331 5334 5337 5340 5342 5344 5346 5348 5351 5354 5357 5361 5364 5367 5369 5372 5375 5380 5385 5390 5395 5400 5404 5408 5411 5415 5418 5420 5422 5424 5426 5429 5432
5335 5333 5330 5328 5326 5324 5322 5320 5318 5317 5316 5315 5314 5313 5312 5311 5310 5310 5308 5308 5307 5306 5306 5304 5305 5305 5306 5307 5307 5309 5310 5311 5313 5316 5318 5321 5324 5326 5329 5332 5334 5336 5338 5340 5343 5346 5349 5353 5356 5359 5361 5364 5367 5371 5376 5381 5387 5391 5396 5401 5405 5408 5411 5414 5416 5418 5420 5422 5426
5326 5324 5322 5321 5318 5316 5314 5312 5311 5310 5309 5308 5306 5306 5305 5304 5303 5303 5302 5302 5301 5300 5300 5299 5299 5300 5301 5302 5302 5303 5305 5306 5307 5310 5312 5315 5317 5320 5323 5324 5326 5329 5331 5333 5336 5339 5342 5345 5349 5352 5354 5356 5359 5363 5368 5373 5378 5384 5389 5394 5397 5401 5405 5407 5409 5411 5413 5416 5419
5319 5316 5314 5313 5311 5309 5308 5307 5305 5304 5303 5302 5301 5300 5299 5298 5298 5297 5297 5296 5296 5295 5295 5294 5295 5295 5296 5296 5298 5298 5300 5302 5304 5305 5307 5309 5312 5315 5316 5318 5320 5322 5324 5327 5330 5333 5336 5339 5342 5344 5346 5349 5352 5356 5360 5365 5370 5376 5381 5386 5390 5394 5398 5401 5402 5404 5406 5409 5412
5311 5309 5307 5306 5305 5303 5302 5301 5300 5299 5298 5297 5296 5295 5294 5293 5292 5292 5292 5292 5291 5291 5291 5291 5291 5291 5292 5292 5293 5294 5296 5298 5300 5302 5303 5305 5307 5309 5311 5312 5314 5316 5319 5322 5325 5328 5331 5334 5336 5338 5340 5342 5346 5349 5354 5358 5363 5368 5374 5379 5383 5387 5391 5393 5394 5397 5399 5402 5405
5303 5302 5301 5300 5299 5298 5298 5297 5295 5295 5293 5293 5291 5291 5290 5289 5288 5288 5288 5288 5288 5288 5287 5287 5287 5288 5288 5289 5290 5291 5292 5294 5296 5299 5301 5303 5304 5306 5307 5308 5310 5312 5315 5318 5321 5324 5326 5329 5330 5333 5335 5338 5340 5344 5348 5352 5357 5362 5367 5372 5376 5380 5383 5386 5387 5389 5391 5395 5398
5298 5297 5295 5295 5295 5294 5293 5292 5291 5291 5290 5289 5288 5286 5286 5285 5284 5284 5284 5284 5284 5284 5284 5284 5284 5284 5285 5286 5287 5288 5290 5291 5293 5295 5297 5299 5301 5302 5303 5304 5306 5309 5311 5315 5319 5322 5323 5324 5326 5328 5330 5333 5336 5339 5343 5347 5352 5357 5361 5365 5369 5373 5376 5378 5380 5381 5384 5387 5391
5293 5292 5291 5291 5290 5289 5289 5288 5287 5286 5286 5285 5284 5283 5281 5281 5280 5280 5280 5281 5281 5281 5281 5281 5281 5281 5282 5283 5285 5286 5288 5288 5290 5292 5293 5295 5297 5299 5301 5302 5304 5306 5310 5313 5317 5320 5321 5322 5323 5324 5326 5329 5332 5335 5339 5343 5348 5352 5356 5360 5364 5367 5370 5371 5373 5374 5376 5380 5383
5288 5288 5287 5286 5286 5286 5285 5284 5283 5282 5281 5280 5279 5279 5277 5277 5276 5276 5276 5277 5277 5278 5278 5278 5278 5278 5279 5281 5282 5284 5286 5287 5288 5289 5290 5292 5294 5296 5299 5302 5303 5306 5309 5312 5316 5318 5320 5322 5323 5324 5325 5326 5329 5333 5336 5341 5345 5349 5353 5356 5359 5362 5364 5366 5366 5368 5370 5373 5376
5285 5284 5283 5282 5282 5281 5281 5279 5278 5277 5277 5275 5275 5274 5273 5273 5273 5273 5273 5273 5274 5274 5274 5275 5275 5276 5277 5279 5280 5283 5284 5285 5285 5286 5288 5289 5291 5295 5298 5300 5302 5305 5308 5312 5314 5317 5319 5321 5323 5324 5326 5326 5328 5331 5335 5339 5343 5347 5350 5354 5357 5359 5361 5362 5362 5363 5364 5366 5369
5280 5279 5279 5278 5277 5277 5276 5275 5274 5273 5272 5271 5270 5270 5269 5269 5270 5270 5271 5271 5271 5271 5272 5273 5274 5274 5275 5277 5279 5280 5281 5282 5283 5284 5286 5288 5290 5293 5297 5300 5302 5306 5309 5312 5314 5316 5319 5321 5323 5325 5326 5327 5329 5331 5335 5338 5342 5346 5350 5353 5356 5357 5358 5358 5359 5359 5360 5361 5364
5276 5275 5274 5273 5273 5272 5271 5270 5268 5267 5266 5267 5266 5265 5265 5266 5266 5267 5267 5268 5269 5269 5270 5271 5271 5272 5274 5275 5277 5277 5279 5281 5281 5283 5284 5287 5290 5294 5297 5300 5303 5306 5309 5312 5315 5317 5319 5321 5323 5325 5327 5328 5329 5331 5335 5338 5342 5346 5349 5352 5354 5355 5356 5356 5356 5356 5357 5358 5360
5272 5271 5269 5268 5267 5267 5266 5266 5264 5263 5262 5262 5262 5262 5262 5262 5264 5264 5265 5266 5267 5268 5269 5269 5269 5271 5272 5274 5275 5276 5277 5279 5281 5282 5285 5287 5291 5295 5298 5301 5304 5308 5311 5313 5315 5318 5320 5322 5324 5326 5328 5329 5330 5332 5335 5338 5342 5346 5349 5351 5352 5354 5355 5354 5355 5354 5355 5356 5357
5267 5266 5265 5264 5263 5262 5261 5260 5259 5259 5258 5258 5258 5259 5259 5260 5261 5262 5263 5263 5264 5265 5266 5267 5267 5269 5270 5271 5273 5274 5276 5278 5280 5283 5285 5288 5292 5296 5299 5303 5306 5310 5312 5315 5317 5319 5321 5324 5326 5327 5329 5330 5331 5333 5336 5339 5343 5345 5348 5350 5352 5352 5353 5353 5352 5353 5353 5354 5355
5263 5262 5260 5259 5258 5257 5257 5256 5255 5255 5254 5255 5255 5256 5256 5257 5258 5259 5260 5261 5261 5262 5263 5265 5266 5267 5268 5270 5272 5274 5276 5279 5281 5284 5287 5290 5294 5297 5301 5305 5308 5312 5314 5316 5319 5321 5323 5326 5328 5329 5331 5331 5333 5335 5338 5340 5343 5345 5347 5349 5350 5351 5351 5352 5351 5351 5352 5352 5354
5259 5258 5256 5255 5254 5253 5253 5252 5251 5251 5251 5252 5253 5253 5254 5254 5255 5257 5258 5258 5258 5259 5260 5262 5263 5265 5267 5269 5271 5274 5277 5281 5283 5287 5290 5293 5296 5299 5304 5307 5311 5314 5316 5319 5321 5323 5325 5327 5330 5331 5333 5334 5335 5336 5339 5342 5343 5345 5346 5347 5348 5349 5349 5350 5350 5350 5351 5351 5352
5255 5253 5252 5251 5251 5249 5249 5249 5248 5249 5249 5249 5250 5251 5251 5252 5253 5254 5255 5256 5256 5257 5259 5261 5262 5264 5267 5270 5273 5276 5279 5283 5286 5289 5293 5295 5298 5302 5306 5310 5314 5317 5319 5321 5323 5325 5328 5330 5331 5333 5335 5335 5336 5338 5341 5341 5343 5344 5345 5346 5346 5346 5347 5347 5347 5348 5348 5349 5350
5251 5249 5248 5248 5247 5247 5247 5247 5246 5247 5247 5248 5249 5249 5250 5251 5252 5252 5253 5253 5254 5256 5258 5261 5263 5266 5268 5272 5275 5278 5282 5285 5289 5292 5295 5298 5301 5304 5308 5313 5317 5320 5322 5324 5326 5328 5330 5332 5334 5335 5336 5336 5337 5339 5340 5340 5341 5342 5343 5343 5343 5343 5343 5344 5343 5344 5345 5346 5347
5247 5246 5245 5245 5245 5245 5245 5245 5245 5245 5246 5246 5247 5247 5248 5250 5251 5252 5252 5252 5253 5256 5259 5262 5265 5268 5272 5275 5278 5282 5285 5288 5291 5294 5298 5301 5303 5307 5310 5315 5320 5323 5325 5327 5329 5331 5332 5334 5336 5337 5338 5337 5337 5338 5338 5338 5338 5339 5339 5339 5339 5339 5340 5340 5340 5341 5341 5342 5344
5246 5244 5243 5243 5243 5243 5244 5244 5244 5244 5245 5245 5246 5247 5248 5249 5250 5251 5252 5253 5254 5257 5261 5265 5268 5271 5275 5278 5281 5286 5289 5291 5294 5297 5301 5304 5307 5310 5314 5317 5323 5326 5329 5330 5332 5334 5335 5338 5340 5341 5340 5339 5337 5336 5336 5335 5335 5334 5334 5335 5335 5336 5336 5336 5336 5338 5339 5340 5342
5243 5242 5242 5241 5242 5242 5243 5243 5243 5244 5244 5245 5246 5247 5248 5249 5250 5252 5253 5254 5256 5260 5263 5267 5272 5275 5279 5281 5285 5289 5293 5296 5298 5300 5303 5307 5310 5313 5317 5320 5325 5329 5332 5334 5336 5338 5341 5343 5344 5344 5342 5341 5339 5336 5335 5334 5332 5331 5331 5331 5332 5332 5332 5333 5334 5335 5336 5338 5341
5242 5241 5241 5241 5241 5241 5242 5242 5243 5244 5244 5245 5246 5247 5249 5250 5251 5253 5255 5256 5259 5263 5266 5271 5275 5279 5282 5285 5288 5292 5296 5300 5302 5304 5307 5310 5313 5316 5319 5323 5328 5332 5336 5339 5341 5344 5345 5346 5346 5345 5344 5342 5341 5338 5336 5335 5333 5331 5330 5330 5330 5331 5330 5331 5331 5333 5334 5336 5340
5240 5240 5240 5240 5240 5240 5241 5242 5243 5244 5244 5245 5246 5247 5249 5251 5252 5255 5257 5260 5263 5266 5270 5274 5278 5281 5284 5288 5291 5295 5299 5303 5306 5308 5310 5313 5316 5319 5323 5326 5330 5336 5340 5343 5346 5348 5348 5347 5347 5345 5344 5343 5342 5341 5339 5337 5335 5333 5332 5330 5330 5330 5330 5330 5331 5332 5333 5336 5339